Time,TemperatureF,DewpointF,PressureIn,WindDirection,WindDirectionDegrees,WindSpeedMPH,WindSpeedGustMPH,Humidity,HourlyPrecipIn,Conditions,Clouds,dailyrainin,SoftwareType,DateUTC
2013-09-06 00:00:00,69.7,62.9,30.06,SE,144,11.0,13.0,79,0.00,,,0.00,Wunderground v.1.15,2013-09-06 05:00:00,
2013-09-06 00:10:00,69.7,62.9,30.06,SSE,150,10.0,10.0,79,0.00,,,0.00,Wunderground v.1.15,2013-09-06 05:10:00,
2013-09-06 00:15:00,69.5,63.1,30.06,SSE,148,10.0,10.0,80,0.00,,,0.00,Wunderground v.1.15,2013-09-06 05:15:00,
2013-09-06 00:20:00,69.5,63.1,30.06,SE,145,10.0,10.0,80,0.00,,,0.00,Wunderground v.1.15,2013-09-06 05:20:00,
2013-09-06 00:25:00,69.6,62.8,30.06,SSE,157,10.0,11.0,79,0.00,,,0.00,Wunderground v.1.15,2013-09-06 05:25:00,
2013-09-06 00:30:00,69.7,62.9,30.05,SE,145,10.0,10.0,79,0.00,,,0.00,Wunderground v.1.15,2013-09-06 05:30:00,
2013-09-06 00:35:00,69.8,63.0,30.05,SSE,148,11.0,13.0,79,0.00,,,0.00,Wunderground v.1.15,2013-09-06 05:35:00,
2013-09-06 00:44:00,69.9,63.1,30.06,SE,139,11.0,14.0,79,0.00,,,0.00,Wunderground v.1.15,2013-09-06 05:44:00,
2013-09-06 00:49:00,70.0,63.2,30.06,SE,140,11.0,13.0,79,0.00,,,0.00,Wunderground v.1.15,2013-09-06 05:49:00,
2013-09-06 00:54:00,69.9,63.1,30.06,SE,146,11.0,13.0,79,0.00,,,0.00,Wunderground v.1.15,2013-09-06 05:54:00,
2013-09-06 00:59:00,69.7,62.9,30.06,SE,144,9.0,9.0,79,0.00,,,0.00,Wunderground v.1.15,2013-09-06 05:59:00,
2013-09-06 01:04:00,69.5,63.1,30.06,SE,137,9.0,10.0,80,0.00,,,0.00,Wunderground v.1.15,2013-09-06 06:04:00,
2013-09-06 01:14:00,69.2,63.1,30.06,SSE,150,10.0,14.0,81,0.00,,,0.00,Wunderground v.1.15,2013-09-06 06:14:00,
2013-09-06 01:19:00,68.9,62.8,30.06,SE,141,9.0,11.0,81,0.00,,,0.00,Wunderground v.1.15,2013-09-06 06:19:00,
2013-09-06 01:24:00,68.8,63.1,30.06,SSE,157,9.0,11.0,82,0.00,,,0.00,Wunderground v.1.15,2013-09-06 06:24:00,
2013-09-06 01:29:00,68.7,63.0,30.06,SE,143,9.0,10.0,82,0.00,,,0.00,Wunderground v.1.15,2013-09-06 06:29:00,
2013-09-06 01:34:00,68.6,62.9,30.06,SSE,150,9.0,10.0,82,0.00,,,0.00,Wunderground v.1.15,2013-09-06 06:34:00,
2013-09-06 01:39:00,68.5,62.8,30.06,SE,145,9.0,10.0,82,0.00,,,0.00,Wunderground v.1.15,2013-09-06 06:39:00,
2013-09-06 01:45:00,68.7,63.0,30.06,SSE,152,10.0,10.0,82,0.00,,,0.00,Wunderground v.1.15,2013-09-06 06:45:00,
2013-09-06 01:50:00,68.8,62.7,30.06,SSE,148,10.0,12.0,81,0.00,,,0.00,Wunderground v.1.15,2013-09-06 06:50:00,
2013-09-06 01:55:00,69.0,62.9,30.05,SE,138,10.0,12.0,81,0.00,,,0.00,Wunderground v.1.15,2013-09-06 06:55:00,
2013-09-06 02:00:00,68.7,62.6,30.06,SSE,158,8.0,10.0,81,0.00,,,0.00,Wunderground v.1.15,2013-09-06 07:00:00,
2013-09-06 02:05:00,68.6,62.9,30.06,SE,146,8.0,10.0,82,0.00,,,0.00,Wunderground v.1.15,2013-09-06 07:05:00,
2013-09-06 02:10:00,68.8,62.7,30.05,SSE,163,8.0,10.0,81,0.00,,,0.00,Wunderground v.1.15,2013-09-06 07:10:00,
2013-09-06 02:20:00,68.5,62.8,30.06,SSE,157,7.0,7.0,82,0.00,,,0.00,Wunderground v.1.15,2013-09-06 07:20:00,
2013-09-06 02:25:00,68.4,62.7,30.06,SSE,158,8.0,9.0,82,0.00,,,0.00,Wunderground v.1.15,2013-09-06 07:25:00,
2013-09-06 02:30:00,68.4,62.7,30.05,SSE,161,7.0,10.0,82,0.00,,,0.00,Wunderground v.1.15,2013-09-06 07:30:00,
2013-09-06 02:35:00,68.3,62.6,30.05,SSE,159,7.0,10.0,82,0.00,,,0.00,Wunderground v.1.15,2013-09-06 07:35:00,
2013-09-06 02:40:00,68.2,62.8,30.05,SSE,157,7.0,10.0,83,0.00,,,0.00,Wunderground v.1.15,2013-09-06 07:40:00,
2013-09-06 02:50:00,68.0,62.6,30.05,SSE,159,8.0,8.0,83,0.00,,,0.00,Wunderground v.1.15,2013-09-06 07:50:00,
2013-09-06 02:55:00,67.8,62.4,30.05,SSE,162,8.0,10.0,83,0.00,,,0.00,Wunderground v.1.15,2013-09-06 07:55:00,
2013-09-06 03:00:00,67.7,62.7,30.05,SSE,159,8.0,8.0,84,0.00,,,0.00,Wunderground v.1.15,2013-09-06 08:00:00,
2013-09-06 03:05:00,67.7,62.7,30.05,SSE,159,8.0,10.0,84,0.00,,,0.00,Wunderground v.1.15,2013-09-06 08:05:00,
2013-09-06 03:10:00,67.6,62.6,30.05,SSE,154,7.0,10.0,84,0.00,,,0.00,Wunderground v.1.15,2013-09-06 08:10:00,
2013-09-06 03:15:00,67.4,62.4,30.05,SSE,161,7.0,10.0,84,0.00,,,0.00,Wunderground v.1.15,2013-09-06 08:15:00,
2013-09-06 03:25:00,67.3,62.6,30.05,SSE,157,8.0,10.0,85,0.00,,,0.00,Wunderground v.1.15,2013-09-06 08:25:00,
2013-09-06 03:30:00,67.3,62.6,30.05,SSE,153,8.0,8.0,85,0.00,,,0.00,Wunderground v.1.15,2013-09-06 08:30:00,
2013-09-06 03:35:00,67.0,62.3,30.05,SSE,167,7.0,10.0,85,0.00,,,0.00,Wunderground v.1.15,2013-09-06 08:35:00,
2013-09-06 03:40:00,67.0,62.7,30.05,SSE,158,6.0,10.0,86,0.00,,,0.00,Wunderground v.1.15,2013-09-06 08:40:00,
2013-09-06 03:45:00,67.0,62.3,30.05,SSE,150,6.0,10.0,85,0.00,,,0.00,Wunderground v.1.15,2013-09-06 08:45:00,
2013-09-06 03:55:00,67.1,62.4,30.05,SSE,163,6.0,10.0,85,0.00,,,0.00,Wunderground v.1.15,2013-09-06 08:55:00,
2013-09-06 04:00:00,67.1,62.4,30.05,SSE,160,6.0,10.0,85,0.00,,,0.00,Wunderground v.1.15,2013-09-06 09:00:00,
2013-09-06 04:05:00,67.0,62.3,30.04,SSE,161,5.0,10.0,85,0.00,,,0.00,Wunderground v.1.15,2013-09-06 09:05:00,
2013-09-06 04:10:00,67.0,62.7,30.04,SSE,156,5.0,10.0,86,0.00,,,0.00,Wunderground v.1.15,2013-09-06 09:10:00,
2013-09-06 04:15:00,67.1,62.8,30.04,SSE,152,6.0,10.0,86,0.00,,,0.00,Wunderground v.1.15,2013-09-06 09:15:00,
2013-09-06 04:20:00,67.1,62.4,30.04,SSE,155,6.0,10.0,85,0.00,,,0.00,Wunderground v.1.15,2013-09-06 09:20:00,
2013-09-06 04:29:00,66.8,62.5,30.04,SSE,158,6.0,10.0,86,0.00,,,0.00,Wunderground v.1.15,2013-09-06 09:29:00,
2013-09-06 04:34:00,66.7,62.4,30.04,SSE,153,6.0,10.0,86,0.00,,,0.00,Wunderground v.1.15,2013-09-06 09:34:00,
2013-09-06 04:39:00,66.6,62.6,30.04,SSE,149,5.0,5.0,87,0.00,,,0.00,Wunderground v.1.15,2013-09-06 09:39:00,
2013-09-06 04:44:00,66.5,62.5,30.04,SSE,147,5.0,7.0,87,0.00,,,0.00,Wunderground v.1.15,2013-09-06 09:44:00,
2013-09-06 04:49:00,66.3,62.3,30.04,SSE,152,5.0,10.0,87,0.00,,,0.00,Wunderground v.1.15,2013-09-06 09:49:00,
2013-09-06 04:59:00,66.3,62.3,30.04,SSE,149,5.0,10.0,87,0.00,,,0.00,Wunderground v.1.15,2013-09-06 09:59:00,
2013-09-06 05:04:00,66.5,62.5,30.04,SSE,159,6.0,10.0,87,0.00,,,0.00,Wunderground v.1.15,2013-09-06 10:04:00,
2013-09-06 05:09:00,66.5,62.5,30.04,SSE,159,6.0,6.0,87,0.00,,,0.00,Wunderground v.1.15,2013-09-06 10:09:00,
2013-09-06 05:14:00,66.4,62.4,30.04,SSE,155,6.0,10.0,87,0.00,,,0.00,Wunderground v.1.15,2013-09-06 10:14:00,
2013-09-06 05:19:00,66.2,62.2,30.04,SSE,154,5.0,10.0,87,0.00,,,0.00,Wunderground v.1.15,2013-09-06 10:19:00,
2013-09-06 05:24:00,66.2,62.5,30.04,SSE,157,5.0,10.0,88,0.00,,,0.00,Wunderground v.1.15,2013-09-06 10:24:00,
2013-09-06 05:30:00,66.1,62.4,30.04,SSE,161,6.0,6.0,88,0.00,,,0.00,Wunderground v.1.15,2013-09-06 10:30:00,
2013-09-06 05:35:00,66.0,62.3,30.04,SSE,156,6.0,8.0,88,0.00,,,0.00,Wunderground v.1.15,2013-09-06 10:35:00,
2013-09-06 05:40:00,65.9,62.2,30.04,SSE,147,6.0,10.0,88,0.00,,,0.00,Wunderground v.1.15,2013-09-06 10:40:00,
2013-09-06 05:45:00,65.9,62.2,30.04,SSE,155,6.0,10.0,88,0.00,,,0.00,Wunderground v.1.15,2013-09-06 10:45:00,
2013-09-06 05:50:00,65.9,62.2,30.04,SSE,157,6.0,6.0,88,0.00,,,0.00,Wunderground v.1.15,2013-09-06 10:50:00,
2013-09-06 05:55:00,65.8,62.5,30.04,SSE,160,6.0,10.0,89,0.00,,,0.00,Wunderground v.1.15,2013-09-06 10:55:00,
2013-09-06 06:05:00,65.8,62.5,30.04,SSE,158,6.0,10.0,89,0.00,,,0.00,Wunderground v.1.15,2013-09-06 11:05:00,
2013-09-06 06:10:00,65.8,62.5,30.04,SSE,157,6.0,10.0,89,0.00,,,0.00,Wunderground v.1.15,2013-09-06 11:10:00,
2013-09-06 06:15:00,65.8,62.5,30.03,SSE,155,6.0,10.0,89,0.00,,,0.00,Wunderground v.1.15,2013-09-06 11:15:00,
2013-09-06 06:20:00,65.7,62.4,30.04,SSE,153,6.0,10.0,89,0.00,,,0.00,Wunderground v.1.15,2013-09-06 11:20:00,
2013-09-06 06:25:00,65.7,62.4,30.04,SSE,157,6.0,10.0,89,0.00,,,0.00,Wunderground v.1.15,2013-09-06 11:25:00,
2013-09-06 06:35:00,65.7,62.4,30.04,SSE,157,6.0,10.0,89,0.00,,,0.00,Wunderground v.1.15,2013-09-06 11:35:00,
2013-09-06 06:40:00,65.8,62.5,30.03,SSE,156,6.0,10.0,89,0.00,,,0.00,Wunderground v.1.15,2013-09-06 11:40:00,
2013-09-06 06:45:00,65.8,62.5,30.03,SSE,155,6.0,10.0,89,0.00,,,0.00,Wunderground v.1.15,2013-09-06 11:45:00,
2013-09-06 06:50:00,65.8,62.5,30.03,SSE,158,6.0,6.0,89,0.00,,,0.00,Wunderground v.1.15,2013-09-06 11:50:00,
2013-09-06 06:55:00,65.8,62.5,30.03,SSE,160,7.0,7.0,89,0.00,,,0.00,Wunderground v.1.15,2013-09-06 11:55:00,
2013-09-06 07:00:00,65.8,62.5,30.03,SSE,161,7.0,7.0,89,0.00,,,0.00,Wunderground v.1.15,2013-09-06 12:00:00,
2013-09-06 07:10:00,65.7,62.4,30.03,SSE,161,6.0,10.0,89,0.00,,,0.00,Wunderground v.1.15,2013-09-06 12:10:00,
2013-09-06 07:15:00,65.7,62.4,30.03,SSE,161,6.0,10.0,89,0.00,,,0.00,Wunderground v.1.15,2013-09-06 12:15:00,
2013-09-06 07:20:00,65.8,62.5,30.03,SSE,162,7.0,10.0,89,0.00,,,0.00,Wunderground v.1.15,2013-09-06 12:20:00,
2013-09-06 07:25:00,65.9,62.6,30.03,SSE,157,7.0,10.0,89,0.00,,,0.00,Wunderground v.1.15,2013-09-06 12:25:00,
2013-09-06 07:30:00,66.0,62.7,30.03,SSE,153,7.0,10.0,89,0.00,,,0.00,Wunderground v.1.15,2013-09-06 12:30:00,
2013-09-06 07:40:00,66.3,62.6,30.03,SSE,167,7.0,7.0,88,0.00,,,0.00,Wunderground v.1.15,2013-09-06 12:40:00,
2013-09-06 07:45:00,66.5,62.8,30.03,SSE,162,8.0,8.0,88,0.00,,,0.00,Wunderground v.1.15,2013-09-06 12:45:00,
2013-09-06 07:50:00,66.8,62.8,30.02,SSE,159,8.0,10.0,87,0.00,,,0.00,Wunderground v.1.15,2013-09-06 12:50:00,
2013-09-06 07:55:00,67.0,63.0,30.02,SSE,165,8.0,12.0,87,0.00,,,0.00,Wunderground v.1.15,2013-09-06 12:55:00,
2013-09-06 08:00:00,67.2,63.2,30.02,SSE,167,9.0,9.0,87,0.00,,,0.00,Wunderground v.1.15,2013-09-06 13:00:00,
2013-09-06 08:05:00,67.4,63.4,30.02,SSE,153,9.0,10.0,87,0.00,,,0.00,Wunderground v.1.15,2013-09-06 13:05:00,
2013-09-06 08:15:00,67.7,63.4,30.02,SSE,166,7.0,10.0,86,0.00,,,0.00,Wunderground v.1.15,2013-09-06 13:15:00,
2013-09-06 08:20:00,67.8,63.5,30.02,SSE,162,7.0,10.0,86,0.00,,,0.00,Wunderground v.1.15,2013-09-06 13:20:00,
2013-09-06 08:25:00,67.9,63.6,30.02,SSE,162,7.0,10.0,86,0.00,,,0.00,Wunderground v.1.15,2013-09-06 13:25:00,
2013-09-06 08:30:00,67.9,63.6,30.02,SSE,166,6.0,6.0,86,0.00,,,0.00,Wunderground v.1.15,2013-09-06 13:30:00,
2013-09-06 08:35:00,68.1,63.8,30.02,SSE,159,7.0,7.0,86,0.00,,,0.00,Wunderground v.1.15,2013-09-06 13:35:00,
2013-09-06 08:45:00,69.3,64.3,30.02,SSE,164,8.0,10.0,84,0.00,,,0.00,Wunderground v.1.15,2013-09-06 13:45:00,
2013-09-06 08:50:00,69.9,64.8,30.02,South,171,9.0,9.0,84,0.00,,,0.00,Wunderground v.1.15,2013-09-06 13:50:00,
2013-09-06 08:55:00,70.5,65.1,30.02,South,169,9.0,10.0,83,0.00,,,0.00,Wunderground v.1.15,2013-09-06 13:55:00,
2013-09-06 09:00:00,70.9,65.1,30.02,SSE,168,9.0,10.0,82,0.00,,,0.00,Wunderground v.1.15,2013-09-06 14:00:00,
2013-09-06 09:05:00,71.2,65.4,30.02,South,170,9.0,14.0,82,0.00,,,0.00,Wunderground v.1.15,2013-09-06 14:05:00,
2013-09-06 09:10:00,71.6,65.5,30.01,SSE,159,9.0,10.0,81,0.00,,,0.00,Wunderground v.1.15,2013-09-06 14:10:00,
2013-09-06 09:19:00,72.4,65.9,30.01,SSE,152,9.0,9.0,80,0.00,,,0.00,Wunderground v.1.15,2013-09-06 14:19:00,
2013-09-06 09:24:00,72.8,66.3,30.01,SSE,165,8.0,10.0,80,0.00,,,0.00,Wunderground v.1.15,2013-09-06 14:24:00,
2013-09-06 09:29:00,73.4,66.1,30.01,South,178,8.0,10.0,78,0.00,,,0.00,Wunderground v.1.15,2013-09-06 14:29:00,
2013-09-06 09:34:00,73.7,66.0,30.01,South,175,9.0,10.0,77,0.00,,,0.00,Wunderground v.1.15,2013-09-06 14:34:00,
2013-09-06 09:39:00,74.0,66.3,30.01,South,171,9.0,10.0,77,0.00,,,0.00,Wunderground v.1.15,2013-09-06 14:39:00,
2013-09-06 09:49:00,74.8,66.7,30.01,South,180,10.0,11.0,76,0.00,,,0.00,Wunderground v.1.15,2013-09-06 14:49:00,
2013-09-06 09:54:00,75.0,66.9,30.01,South,182,10.0,11.0,76,0.00,,,0.00,Wunderground v.1.15,2013-09-06 14:54:00,
2013-09-06 09:59:00,75.0,66.1,30.01,South,186,11.0,12.0,74,0.00,,,0.00,Wunderground v.1.15,2013-09-06 14:59:00,
2013-09-06 10:04:00,75.4,66.5,30.01,SSE,165,11.0,12.0,74,0.00,,,0.00,Wunderground v.1.15,2013-09-06 15:04:00,
2013-09-06 10:09:00,75.6,66.7,30.01,South,178,10.0,10.0,74,0.00,,,0.00,Wunderground v.1.15,2013-09-06 15:09:00,
2013-09-06 10:14:00,76.0,67.1,30.01,South,172,10.0,10.0,74,0.00,,,0.00,Wunderground v.1.15,2013-09-06 15:14:00,
2013-09-06 10:20:00,76.4,67.1,30.01,SSE,167,9.0,9.0,73,0.00,,,0.00,Wunderground v.1.15,2013-09-06 15:20:00,
2013-09-06 10:25:00,76.7,67.8,30.01,South,180,9.0,10.0,74,0.00,,,0.00,Wunderground v.1.15,2013-09-06 15:25:00,
2013-09-06 10:30:00,77.3,67.6,30.01,South,170,9.0,11.0,72,0.00,,,0.00,Wunderground v.1.15,2013-09-06 15:30:00,
2013-09-06 10:35:00,77.6,67.4,30.01,South,178,9.0,11.0,71,0.00,,,0.00,Wunderground v.1.15,2013-09-06 15:35:00,
2013-09-06 10:40:00,78.0,67.8,30.00,SSE,165,9.0,9.0,71,0.00,,,0.00,Wunderground v.1.15,2013-09-06 15:40:00,
2013-09-06 10:45:00,78.4,67.8,30.00,South,171,8.0,10.0,70,0.00,,,0.00,Wunderground v.1.15,2013-09-06 15:45:00,
2013-09-06 10:55:00,79.0,67.5,30.00,South,184,9.0,9.0,68,0.00,,,0.00,Wunderground v.1.15,2013-09-06 15:55:00,
2013-09-06 11:00:00,79.3,68.2,30.00,South,171,9.0,11.0,69,0.00,,,0.00,Wunderground v.1.15,2013-09-06 16:00:00,
2013-09-06 11:05:00,79.6,67.2,30.00,South,172,10.0,11.0,66,0.00,,,0.00,Wunderground v.1.15,2013-09-06 16:05:00,
2013-09-06 11:10:00,79.8,67.0,30.00,South,177,10.0,10.0,65,0.00,,,0.00,Wunderground v.1.15,2013-09-06 16:10:00,
2013-09-06 11:15:00,80.1,68.2,30.00,South,176,10.0,10.0,67,0.00,,,0.00,Wunderground v.1.15,2013-09-06 16:15:00,
2013-09-06 11:25:00,80.7,67.4,29.99,SSW,192,10.0,11.0,64,0.00,,,0.00,Wunderground v.1.15,2013-09-06 16:25:00,
2013-09-06 11:30:00,80.8,68.4,29.99,South,170,10.0,10.0,66,0.00,,,0.00,Wunderground v.1.15,2013-09-06 16:30:00,
2013-09-06 11:35:00,81.2,67.9,29.99,South,177,10.0,10.0,64,0.00,,,0.00,Wunderground v.1.15,2013-09-06 16:35:00,
2013-09-06 11:40:00,81.5,67.7,29.99,SSW,196,9.0,12.0,63,0.00,,,0.00,Wunderground v.1.15,2013-09-06 16:40:00,
2013-09-06 11:45:00,81.7,69.7,29.99,South,177,9.0,12.0,67,0.00,,,0.00,Wunderground v.1.15,2013-09-06 16:45:00,
2013-09-06 11:50:00,81.9,68.1,29.99,South,169,10.0,10.0,63,0.00,,,0.00,Wunderground v.1.15,2013-09-06 16:50:00,
2013-09-06 12:00:00,82.5,68.6,29.99,SSE,153,9.0,11.0,63,0.00,,,0.00,Wunderground v.1.15,2013-09-06 17:00:00,
2013-09-06 12:05:00,82.7,70.2,29.99,South,169,10.0,11.0,66,0.00,,,0.00,Wunderground v.1.15,2013-09-06 17:05:00,
2013-09-06 12:10:00,83.0,69.1,29.98,SSE,164,10.0,10.0,63,0.00,,,0.00,Wunderground v.1.15,2013-09-06 17:10:00,
2013-09-06 12:15:00,83.2,69.8,29.98,SSE,162,10.0,13.0,64,0.00,,,0.00,Wunderground v.1.15,2013-09-06 17:15:00,
2013-09-06 12:20:00,83.2,68.8,29.98,South,176,11.0,14.0,62,0.00,,,0.00,Wunderground v.1.15,2013-09-06 17:20:00,
2013-09-06 12:30:00,83.9,70.0,29.98,SSE,159,10.0,10.0,63,0.00,,,0.00,Wunderground v.1.15,2013-09-06 17:30:00,
2013-09-06 12:35:00,84.2,69.8,29.97,South,169,10.0,10.0,62,0.00,,,0.00,Wunderground v.1.15,2013-09-06 17:35:00,
2013-09-06 12:40:00,84.6,70.1,29.97,South,171,9.0,9.0,62,0.00,,,0.00,Wunderground v.1.15,2013-09-06 17:40:00,
2013-09-06 12:45:00,84.5,69.6,29.97,SSE,163,11.0,11.0,61,0.00,,,0.00,Wunderground v.1.15,2013-09-06 17:45:00,
2013-09-06 12:50:00,84.9,69.0,29.97,South,169,12.0,12.0,59,0.00,,,0.00,Wunderground v.1.15,2013-09-06 17:50:00,
2013-09-06 12:55:00,85.1,70.6,29.97,SE,138,10.0,12.0,62,0.00,,,0.00,Wunderground v.1.15,2013-09-06 17:55:00,
2013-09-06 13:05:00,85.6,70.1,29.96,SSE,159,10.0,10.0,60,0.00,,,0.00,Wunderground v.1.15,2013-09-06 18:05:00,
2013-09-06 13:10:00,85.4,69.9,29.96,SSE,159,10.0,10.0,60,0.00,,,0.00,Wunderground v.1.15,2013-09-06 18:10:00,
2013-09-06 13:15:00,85.4,70.9,29.96,South,171,12.0,12.0,62,0.00,,,0.00,Wunderground v.1.15,2013-09-06 18:15:00,
2013-09-06 13:20:00,85.8,70.8,29.96,South,171,11.0,11.0,61,0.00,,,0.00,Wunderground v.1.15,2013-09-06 18:20:00,
2013-09-06 13:25:00,86.1,70.1,29.95,SSE,167,10.0,11.0,59,0.00,,,0.00,Wunderground v.1.15,2013-09-06 18:25:00,
2013-09-06 13:34:00,86.2,71.2,29.95,SSE,161,11.0,13.0,61,0.00,,,0.00,Wunderground v.1.15,2013-09-06 18:34:00,
2013-09-06 13:39:00,86.4,70.9,29.95,SSE,159,12.0,14.0,60,0.00,,,0.00,Wunderground v.1.15,2013-09-06 18:39:00,
2013-09-06 13:44:00,86.7,71.2,29.95,SE,140,12.0,14.0,60,0.00,,,0.00,Wunderground v.1.15,2013-09-06 18:44:00,
2013-09-06 13:49:00,86.8,70.8,29.95,SSE,167,11.0,14.0,59,0.00,,,0.00,Wunderground v.1.15,2013-09-06 18:49:00,
2013-09-06 13:54:00,87.0,71.4,29.95,SSE,149,10.0,15.0,60,0.00,,,0.00,Wunderground v.1.15,2013-09-06 18:54:00,
2013-09-06 13:59:00,87.2,71.1,29.95,SSE,156,11.0,11.0,59,0.00,,,0.00,Wunderground v.1.15,2013-09-06 18:59:00,
2013-09-06 14:09:00,87.3,70.2,29.95,SSE,161,12.0,12.0,57,0.00,,,0.00,Wunderground v.1.15,2013-09-06 19:09:00,
2013-09-06 14:14:00,87.6,71.5,29.94,SSE,163,12.0,12.0,59,0.00,,,0.00,Wunderground v.1.15,2013-09-06 19:14:00,
2013-09-06 14:19:00,87.3,71.2,29.94,SE,138,13.0,16.0,59,0.00,,,0.00,Wunderground v.1.15,2013-09-06 19:19:00,
2013-09-06 14:24:00,87.3,71.7,29.94,SSE,160,14.0,16.0,60,0.00,,,0.00,Wunderground v.1.15,2013-09-06 19:24:00,
2013-09-06 14:29:00,87.4,70.3,29.94,SSE,163,14.0,17.0,57,0.00,,,0.00,Wunderground v.1.15,2013-09-06 19:29:00,
2013-09-06 14:35:00,87.9,69.7,29.94,SSE,168,14.0,17.0,55,0.00,,,0.00,Wunderground v.1.15,2013-09-06 19:35:00,
2013-09-06 14:40:00,88.1,70.4,29.93,SSE,149,14.0,14.0,56,0.00,,,0.00,Wunderground v.1.15,2013-09-06 19:40:00,
2013-09-06 14:45:00,88.4,72.2,29.93,SSE,163,13.0,14.0,59,0.00,,,0.00,Wunderground v.1.15,2013-09-06 19:45:00,
2013-09-06 14:50:00,88.5,71.3,29.93,SSE,161,13.0,16.0,57,0.00,,,0.00,Wunderground v.1.15,2013-09-06 19:50:00,
2013-09-06 14:55:00,88.7,71.5,29.93,SSE,151,13.0,16.0,57,0.00,,,0.00,Wunderground v.1.15,2013-09-06 19:55:00,
2013-09-06 15:00:00,88.9,71.2,29.93,SSE,147,14.0,15.0,56,0.00,,,0.00,Wunderground v.1.15,2013-09-06 20:00:00,
2013-09-06 15:10:00,89.4,71.1,29.93,SSE,160,11.0,11.0,55,0.00,,,0.00,Wunderground v.1.15,2013-09-06 20:10:00,
2013-09-06 15:15:00,89.0,72.3,29.92,SSE,156,12.0,17.0,58,0.00,,,0.00,Wunderground v.1.15,2013-09-06 20:15:00,
2013-09-06 15:20:00,89.4,72.2,29.92,SSE,155,13.0,13.0,57,0.00,,,0.00,Wunderground v.1.15,2013-09-06 20:20:00,
2013-09-06 15:25:00,89.2,70.4,29.92,SSE,154,14.0,14.0,54,0.00,,,0.00,Wunderground v.1.15,2013-09-06 20:25:00,
2013-09-06 15:30:00,89.0,71.3,29.92,SE,140,14.0,14.0,56,0.00,,,0.00,Wunderground v.1.15,2013-09-06 20:30:00,
2013-09-06 15:35:00,89.1,71.9,29.91,South,169,13.0,14.0,57,0.00,,,0.00,Wunderground v.1.15,2013-09-06 20:35:00,
2013-09-06 15:45:00,89.1,70.8,29.91,SSE,163,13.0,18.0,55,0.00,,,0.00,Wunderground v.1.15,2013-09-06 20:45:00,
2013-09-06 15:50:00,89.3,70.5,29.91,SSE,148,14.0,16.0,54,0.00,,,0.00,Wunderground v.1.15,2013-09-06 20:50:00,
2013-09-06 15:55:00,89.7,70.3,29.91,SE,139,14.0,16.0,53,0.00,,,0.00,Wunderground v.1.15,2013-09-06 20:55:00,
2013-09-06 16:00:00,89.7,71.4,29.91,SSE,159,13.0,13.0,55,0.00,,,0.00,Wunderground v.1.15,2013-09-06 21:00:00,
2013-09-06 16:05:00,89.9,71.0,29.91,SSE,154,13.0,17.0,54,0.00,,,0.00,Wunderground v.1.15,2013-09-06 21:05:00,
2013-09-06 16:15:00,90.0,70.6,29.90,SSE,167,16.0,16.0,53,0.00,,,0.00,Wunderground v.1.15,2013-09-06 21:15:00,
2013-09-06 16:20:00,90.0,70.6,29.90,SSE,154,15.0,16.0,53,0.00,,,0.00,Wunderground v.1.15,2013-09-06 21:20:00,
2013-09-06 16:25:00,90.1,69.0,29.90,SE,130,14.0,17.0,50,0.00,,,0.00,Wunderground v.1.15,2013-09-06 21:25:00,
2013-09-06 16:30:00,90.3,69.7,29.90,SSE,165,15.0,15.0,51,0.00,,,0.00,Wunderground v.1.15,2013-09-06 21:30:00,
2013-09-06 16:35:00,90.4,70.9,29.90,SSE,147,12.0,15.0,53,0.00,,,0.00,Wunderground v.1.15,2013-09-06 21:35:00,
2013-09-06 16:40:00,90.7,71.2,29.90,South,171,12.0,13.0,53,0.00,,,0.00,Wunderground v.1.15,2013-09-06 21:40:00,
2013-09-06 16:50:00,90.4,69.2,29.89,SSE,155,13.0,19.0,50,0.00,,,0.00,Wunderground v.1.15,2013-09-06 21:50:00,
2013-09-06 16:55:00,90.3,70.8,29.89,SSE,158,13.0,19.0,53,0.00,,,0.00,Wunderground v.1.15,2013-09-06 21:55:00,
2013-09-06 17:00:00,90.3,69.7,29.89,SSE,165,12.0,12.0,51,0.00,,,0.00,Wunderground v.1.15,2013-09-06 22:00:00,
2013-09-06 17:05:00,90.3,69.7,29.89,SSE,157,13.0,13.0,51,0.00,,,0.00,Wunderground v.1.15,2013-09-06 22:05:00,
2013-09-06 17:10:00,90.3,68.5,29.89,SSE,161,13.0,16.0,49,0.00,,,0.00,Wunderground v.1.15,2013-09-06 22:10:00,
2013-09-06 17:19:00,90.3,68.5,29.88,SSE,162,15.0,18.0,49,0.00,,,0.00,Wunderground v.1.15,2013-09-06 22:19:00,
2013-09-06 17:24:00,90.3,67.9,29.88,SSE,155,14.0,18.0,48,0.00,,,0.00,Wunderground v.1.15,2013-09-06 22:24:00,
2013-09-06 17:29:00,90.0,68.9,29.88,SSE,166,13.0,13.0,50,0.00,,,0.00,Wunderground v.1.15,2013-09-06 22:29:00,
2013-09-06 17:34:00,90.0,68.3,29.88,SE,146,11.0,13.0,49,0.00,,,0.00,Wunderground v.1.15,2013-09-06 22:34:00,
2013-09-06 17:39:00,89.9,67.6,29.88,SSE,163,13.0,14.0,48,0.00,,,0.00,Wunderground v.1.15,2013-09-06 22:39:00,
2013-09-06 17:44:00,89.3,66.4,29.88,SSE,163,14.0,14.0,47,0.00,,,0.00,Wunderground v.1.15,2013-09-06 22:44:00,
2013-09-06 17:54:00,89.1,67.5,29.88,SSE,162,12.0,13.0,49,0.00,,,0.00,Wunderground v.1.15,2013-09-06 22:54:00,
2013-09-06 17:59:00,88.9,67.9,29.88,SSE,153,12.0,12.0,50,0.00,,,0.00,Wunderground v.1.15,2013-09-06 22:59:00,
2013-09-06 18:04:00,89.0,67.4,29.87,SSE,161,11.0,12.0,49,0.00,,,0.00,Wunderground v.1.15,2013-09-06 23:04:00,
2013-09-06 18:09:00,89.3,67.0,29.87,SSE,159,12.0,15.0,48,0.00,,,0.00,Wunderground v.1.15,2013-09-06 23:09:00,
2013-09-06 18:14:00,89.1,68.0,29.87,SSE,155,12.0,15.0,50,0.00,,,0.00,Wunderground v.1.15,2013-09-06 23:14:00,
2013-09-06 18:20:00,88.9,67.3,29.87,SSE,166,12.0,12.0,49,0.00,,,0.00,Wunderground v.1.15,2013-09-06 23:20:00,
2013-09-06 18:29:00,88.4,68.0,29.87,SSE,149,10.0,11.0,51,0.00,,,0.00,Wunderground v.1.15,2013-09-06 23:29:00,
2013-09-06 18:34:00,88.2,67.2,29.87,SSE,159,10.0,11.0,50,0.00,,,0.00,Wunderground v.1.15,2013-09-06 23:34:00,
2013-09-06 18:39:00,88.1,67.1,29.86,SE,145,10.0,14.0,50,0.00,,,0.00,Wunderground v.1.15,2013-09-06 23:39:00,
2013-09-06 18:44:00,88.1,67.1,29.86,SSE,151,10.0,14.0,50,0.00,,,0.00,Wunderground v.1.15,2013-09-06 23:44:00,
2013-09-06 18:49:00,88.0,67.0,29.86,SSE,158,11.0,11.0,50,0.00,,,0.00,Wunderground v.1.15,2013-09-06 23:49:00,
2013-09-06 18:55:00,87.4,67.6,29.86,SSE,155,10.0,11.0,52,0.00,,,0.00,Wunderground v.1.15,2013-09-06 23:55:00,
2013-09-06 19:00:00,86.9,67.2,29.86,SE,146,9.0,10.0,52,0.00,,,0.00,Wunderground v.1.15,2013-09-07 00:00:00,
2013-09-06 19:05:00,86.6,68.0,29.86,SSE,151,9.0,10.0,54,0.00,,,0.00,Wunderground v.1.15,2013-09-07 00:05:00,
2013-09-06 19:10:00,86.3,67.2,29.86,SSE,159,10.0,10.0,53,0.00,,,0.00,Wunderground v.1.15,2013-09-07 00:10:00,
2013-09-06 19:15:00,85.9,67.3,29.86,SSE,153,10.0,10.0,54,0.00,,,0.00,Wunderground v.1.15,2013-09-07 00:15:00,
2013-09-06 19:20:00,85.6,67.0,29.85,SE,146,10.0,10.0,54,0.00,,,0.00,Wunderground v.1.15,2013-09-07 00:20:00,
2013-09-06 19:30:00,84.7,66.7,29.85,SSE,148,9.0,9.0,55,0.00,,,0.00,Wunderground v.1.15,2013-09-07 00:30:00,
2013-09-06 19:35:00,84.2,67.3,29.85,SSE,151,9.0,11.0,57,0.00,,,0.00,Wunderground v.1.15,2013-09-07 00:35:00,
2013-09-06 19:40:00,83.7,67.8,29.85,SSE,150,9.0,10.0,59,0.00,,,0.00,Wunderground v.1.15,2013-09-07 00:40:00,
2013-09-06 19:45:00,82.9,67.6,29.85,SSE,151,8.0,10.0,60,0.00,,,0.00,Wunderground v.1.15,2013-09-07 00:45:00,
2013-09-06 19:50:00,82.4,68.1,29.85,SSE,147,9.0,9.0,62,0.00,,,0.00,Wunderground v.1.15,2013-09-07 00:50:00,
2013-09-06 20:00:00,81.6,68.2,29.85,SSE,149,9.0,10.0,64,0.00,,,0.00,Wunderground v.1.15,2013-09-07 01:00:00,
2013-09-06 20:05:00,81.3,68.4,29.85,SSE,150,9.0,10.0,65,0.00,,,0.00,Wunderground v.1.15,2013-09-07 01:05:00,
2013-09-06 20:10:00,80.8,68.4,29.85,SE,146,9.0,9.0,66,0.00,,,0.00,Wunderground v.1.15,2013-09-07 01:10:00,
2013-09-06 20:15:00,80.5,68.5,29.85,SSE,150,8.0,10.0,67,0.00,,,0.00,Wunderground v.1.15,2013-09-07 01:15:00,
2013-09-06 20:20:00,80.4,68.0,29.85,SSE,150,8.0,8.0,66,0.00,,,0.00,Wunderground v.1.15,2013-09-07 01:20:00,
2013-09-06 20:25:00,80.3,68.3,29.85,SSE,150,9.0,9.0,67,0.00,,,0.00,Wunderground v.1.15,2013-09-07 01:25:00,
2013-09-06 20:35:00,80.2,67.8,29.85,SSE,148,9.0,11.0,66,0.00,,,0.00,Wunderground v.1.15,2013-09-07 01:35:00,
2013-09-06 20:40:00,80.2,67.4,29.86,SSE,157,10.0,12.0,65,0.00,,,0.00,Wunderground v.1.15,2013-09-07 01:40:00,
2013-09-06 20:45:00,80.1,67.7,29.86,SSE,149,10.0,12.0,66,0.00,,,0.00,Wunderground v.1.15,2013-09-07 01:45:00,
2013-09-06 20:50:00,80.0,67.2,29.86,SSE,151,10.0,10.0,65,0.00,,,0.00,Wunderground v.1.15,2013-09-07 01:50:00,
2013-09-06 20:55:00,79.7,67.3,29.86,SE,144,10.0,11.0,66,0.00,,,0.00,Wunderground v.1.15,2013-09-07 01:55:00,
2013-09-06 21:04:00,79.7,66.9,29.86,SSE,157,10.0,10.0,65,0.00,,,0.00,Wunderground v.1.15,2013-09-07 02:04:00,
2013-09-06 21:09:00,79.6,66.8,29.86,SE,145,10.0,12.0,65,0.00,,,0.00,Wunderground v.1.15,2013-09-07 02:09:00,
2013-09-06 21:14:00,79.5,66.7,29.86,SSE,162,10.0,12.0,65,0.00,,,0.00,Wunderground v.1.15,2013-09-07 02:14:00,
2013-09-06 21:19:00,79.4,66.6,29.86,SSE,157,10.0,10.0,65,0.00,,,0.00,Wunderground v.1.15,2013-09-07 02:19:00,
2013-09-06 21:24:00,79.4,66.6,29.86,SSE,163,11.0,11.0,65,0.00,,,0.00,Wunderground v.1.15,2013-09-07 02:24:00,
2013-09-06 21:29:00,79.1,66.8,29.86,SSE,155,11.0,13.0,66,0.00,,,0.00,Wunderground v.1.15,2013-09-07 02:29:00,
2013-09-06 21:39:00,78.9,66.6,29.86,SSE,158,10.0,11.0,66,0.00,,,0.00,Wunderground v.1.15,2013-09-07 02:39:00,
2013-09-06 21:44:00,78.7,66.4,29.86,SSE,165,10.0,11.0,66,0.00,,,0.00,Wunderground v.1.15,2013-09-07 02:44:00,
2013-09-06 21:49:00,78.4,66.1,29.86,SSE,157,10.0,10.0,66,0.00,,,0.00,Wunderground v.1.15,2013-09-07 02:49:00,
2013-09-06 21:54:00,78.2,65.9,29.86,SSE,161,10.0,10.0,66,0.00,,,0.00,Wunderground v.1.15,2013-09-07 02:54:00,
2013-09-06 21:59:00,78.1,66.2,29.86,SSE,161,9.0,9.0,67,0.00,,,0.00,Wunderground v.1.15,2013-09-07 02:59:00,
2013-09-06 22:05:00,78.0,66.2,29.86,SSE,164,9.0,10.0,67,0.00,,,0.00,Wunderground v.1.15,2013-09-07 03:05:00,
2013-09-06 22:10:00,77.8,66.0,29.86,SSE,165,10.0,12.0,67,0.00,,,0.00,Wunderground v.1.15,2013-09-07 03:10:00,
2013-09-06 22:15:00,77.6,65.8,29.86,SSE,157,10.0,12.0,67,0.00,,,0.00,Wunderground v.1.15,2013-09-07 03:15:00,
2013-09-06 22:20:00,77.2,65.8,29.85,SSE,159,10.0,13.0,68,0.00,,,0.00,Wunderground v.1.15,2013-09-07 03:20:00,
2013-09-06 22:25:00,77.1,66.1,29.85,SSE,163,9.0,13.0,69,0.00,,,0.00,Wunderground v.1.15,2013-09-07 03:25:00,
2013-09-06 22:30:00,76.8,65.9,29.85,South,169,9.0,9.0,69,0.00,,,0.00,Wunderground v.1.15,2013-09-07 03:30:00,
2013-09-06 22:40:00,76.2,65.7,29.86,SSE,161,9.0,9.0,70,0.00,,,0.00,Wunderground v.1.15,2013-09-07 03:40:00,
2013-09-06 22:45:00,76.0,65.9,29.86,SSE,167,8.0,10.0,71,0.00,,,0.00,Wunderground v.1.15,2013-09-07 03:45:00,
2013-09-06 22:50:00,76.0,65.9,29.86,SSE,154,8.0,10.0,71,0.00,,,0.00,Wunderground v.1.15,2013-09-07 03:50:00,
2013-09-06 22:55:00,75.8,65.7,29.86,SSE,155,8.0,10.0,71,0.00,,,0.00,Wunderground v.1.15,2013-09-07 03:55:00,
2013-09-06 23:00:00,75.7,65.6,29.86,SSE,153,9.0,11.0,71,0.00,,,0.00,Wunderground v.1.15,2013-09-07 04:00:00,
2013-09-06 23:05:00,75.6,65.5,29.86,SSE,164,9.0,11.0,71,0.00,,,0.00,Wunderground v.1.15,2013-09-07 04:05:00,
2013-09-06 23:10:00,75.2,65.6,29.86,SSE,163,8.0,8.0,72,0.00,,,0.00,Wunderground v.1.15,2013-09-07 04:10:00,
2013-09-06 23:15:00,75.1,65.5,29.86,SSE,160,8.0,10.0,72,0.00,,,0.00,Wunderground v.1.15,2013-09-07 04:15:00,
2013-09-06 23:20:00,74.7,65.5,29.86,SSE,161,8.0,10.0,73,0.00,,,0.00,Wunderground v.1.15,2013-09-07 04:20:00,
2013-09-06 23:25:00,74.4,65.6,29.86,SSE,158,8.0,10.0,74,0.00,,,0.00,Wunderground v.1.15,2013-09-07 04:25:00,
2013-09-06 23:30:00,74.2,65.4,29.85,SSE,157,8.0,8.0,74,0.00,,,0.00,Wunderground v.1.15,2013-09-07 04:30:00,
2013-09-06 23:35:00,73.9,65.5,29.86,SSE,158,9.0,9.0,75,0.00,,,0.00,Wunderground v.1.15,2013-09-07 04:35:00,
2013-09-06 23:40:00,73.8,65.4,29.86,SSE,163,8.0,8.0,75,0.00,,,0.00,Wunderground v.1.15,2013-09-07 04:40:00,
2013-09-06 23:45:00,73.8,65.4,29.86,SSE,161,8.0,10.0,75,0.00,,,0.00,Wunderground v.1.15,2013-09-07 04:45:00,
2013-09-06 23:50:00,73.7,65.3,29.85,SSE,168,8.0,8.0,75,0.00,,,0.00,Wunderground v.1.15,2013-09-07 04:50:00,
2013-09-06 23:55:00,73.6,65.2,29.86,SSE,167,8.0,10.0,75,0.00,,,0.00,Wunderground v.1.15,2013-09-07 04:55:00,